Time,TemperatureF,DewpointF,PressureIn,WindDirection,WindDirectionDegrees,WindSpeedMPH,WindSpeedGustMPH,Humidity,HourlyPrecipIn,Conditions,Clouds,dailyrainin,SoftwareType,DateUTC
2013-07-06 00:01:00,68.9,68.0,30.11,SE,144,0.0,0.0,97,0.00,RA,,0.00,WeatherDisplay:10.37,2013-07-06 04:01:00,
2013-07-06 00:02:00,68.9,68.0,30.11,SE,144,0.0,0.0,97,0.00,RA,,0.00,WeatherDisplay:10.37,2013-07-06 04:02:00,
2013-07-06 00:03:00,69.0,68.1,30.11,SE,144,0.0,0.0,97,0.00,RA,,0.00,WeatherDisplay:10.37,2013-07-06 04:03:00,
2013-07-06 00:08:00,69.0,68.1,30.11,SE,144,0.0,0.0,97,0.00,RA,,0.00,WeatherDisplay:10.37,2013-07-06 04:08:00,
2013-07-06 00:13:00,69.0,68.1,30.11,SE,140,0.0,1.0,97,0.00,RA,,0.00,WeatherDisplay:10.37,2013-07-06 04:13:00,
2013-07-06 00:18:00,69.0,68.1,30.11,SE,125,0.0,0.0,97,0.00,SCT,,0.00,WeatherDisplay:10.37,2013-07-06 04:18:00,
2013-07-06 00:23:00,69.1,68.2,30.10,ESE,115,0.0,0.0,97,0.00,SCT,,0.00,WeatherDisplay:10.37,2013-07-06 04:23:00,
2013-07-06 00:28:00,69.1,68.2,30.10,ESE,121,0.0,1.0,97,0.00,SCT,,0.00,WeatherDisplay:10.37,2013-07-06 04:28:00,
2013-07-06 00:33:00,69.2,68.3,30.10,SE,136,0.0,0.0,97,0.00,SCT,,0.00,WeatherDisplay:10.37,2013-07-06 04:33:00,
2013-07-06 00:38:00,69.2,68.3,30.10,SE,134,0.0,2.0,97,0.00,SCT,,0.00,WeatherDisplay:10.37,2013-07-06 04:38:00,
2013-07-06 00:43:00,69.2,68.3,30.10,SE,134,0.0,0.0,97,0.00,SCT,,0.00,WeatherDisplay:10.37,2013-07-06 04:43:00,
2013-07-06 00:48:00,69.2,68.3,30.10,SE,134,0.0,0.0,97,0.00,RA,,0.01,WeatherDisplay:10.37,2013-07-06 04:48:00,
2013-07-06 00:53:00,69.3,68.4,30.10,SE,135,0.0,1.0,97,0.00,RA,,0.01,WeatherDisplay:10.37,2013-07-06 04:53:00,
2013-07-06 00:58:00,69.3,68.4,30.10,SE,144,0.0,0.0,97,0.00,RA,,0.01,WeatherDisplay:10.37,2013-07-06 04:58:00,
2013-07-06 01:03:00,69.3,68.4,30.10,SSE,150,0.0,0.0,97,0.01,BKN,,0.01,WeatherDisplay:10.37,2013-07-06 05:03:00,
2013-07-06 01:08:00,69.2,68.3,30.10,SSE,152,0.0,0.2,97,0.01,BKN,,0.01,WeatherDisplay:10.37,2013-07-06 05:08:00,
2013-07-06 01:13:00,69.2,68.3,30.10,SSE,148,0.0,1.0,97,0.00,BKN,,0.01,WeatherDisplay:10.37,2013-07-06 05:13:00,
2013-07-06 01:18:00,69.2,68.3,30.10,SE,141,0.0,0.0,97,0.00,BKN,,0.01,WeatherDisplay:10.37,2013-07-06 05:18:00,
2013-07-06 01:23:00,69.2,68.3,30.11,ESE,119,0.0,0.0,97,0.00,BKN,,0.01,WeatherDisplay:10.37,2013-07-06 05:23:00,
2013-07-06 01:28:00,69.1,68.2,30.11,ESE,119,0.0,1.0,97,0.00,BKN,,0.01,WeatherDisplay:10.37,2013-07-06 05:28:00,
2013-07-06 01:33:00,69.1,68.2,30.11,SE,136,0.0,0.0,97,0.00,BKN,,0.01,WeatherDisplay:10.37,2013-07-06 05:33:00,
2013-07-06 01:38:00,69.1,68.2,30.11,SSE,153,0.0,0.0,97,0.00,BKN,,0.01,WeatherDisplay:10.37,2013-07-06 05:38:00,
2013-07-06 01:43:00,69.1,68.2,30.11,SSE,154,0.0,0.0,97,0.00,BKN,,0.01,WeatherDisplay:10.37,2013-07-06 05:43:00,
2013-07-06 01:48:00,69.0,68.1,30.11,SSE,154,0.0,0.0,97,0.00,BKN,,0.01,WeatherDisplay:10.37,2013-07-06 05:48:00,
2013-07-06 01:53:00,69.0,68.1,30.10,SSE,154,1.2,0.0,97,0.00,BKN,,0.01,WeatherDisplay:10.37,2013-07-06 05:53:00,
2013-07-06 01:58:00,69.0,68.1,30.10,SSE,154,2.3,0.0,97,0.00,BKN,,0.01,WeatherDisplay:10.37,2013-07-06 05:58:00,
2013-07-06 02:03:00,69.0,68.1,30.10,SE,142,1.2,1.2,97,0.00,BKN,,0.01,WeatherDisplay:10.37,2013-07-06 06:03:00,
2013-07-06 02:08:00,69.0,68.1,30.10,SE,142,1.2,1.2,97,0.00,BKN,,0.01,WeatherDisplay:10.37,2013-07-06 06:08:00,
2013-07-06 02:13:00,69.0,68.1,30.09,SE,142,0.0,0.0,97,0.00,OVC,,0.01,WeatherDisplay:10.37,2013-07-06 06:13:00,
2013-07-06 02:18:00,69.0,68.1,30.09,SE,142,0.0,0.0,97,0.00,OVC,,0.01,WeatherDisplay:10.37,2013-07-06 06:18:00,
2013-07-06 02:23:00,69.0,68.1,30.09,SE,142,0.0,0.0,97,0.00,OVC,,0.01,WeatherDisplay:10.37,2013-07-06 06:23:00,
2013-07-06 02:28:00,69.0,68.1,30.09,SE,134,3.5,0.0,97,0.00,OVC,,0.01,WeatherDisplay:10.37,2013-07-06 06:28:00,
2013-07-06 02:33:00,69.0,68.1,30.09,SE,134,0.0,0.0,97,0.00,OVC,,0.01,WeatherDisplay:10.37,2013-07-06 06:33:00,
2013-07-06 02:38:00,69.0,68.1,30.09,SE,134,0.0,0.0,97,0.00,OVC,,0.01,WeatherDisplay:10.37,2013-07-06 06:38:00,
2013-07-06 02:43:00,69.0,68.1,30.08,SE,134,0.0,0.0,97,0.00,OVC,,0.01,WeatherDisplay:10.37,2013-07-06 06:43:00,
2013-07-06 02:48:00,69.0,68.1,30.08,SE,134,1.2,0.0,97,0.00,OVC,,0.01,WeatherDisplay:10.37,2013-07-06 06:48:00,
2013-07-06 02:53:00,69.0,68.1,30.08,SE,134,0.0,0.0,97,0.00,OVC,,0.01,WeatherDisplay:10.37,2013-07-06 06:53:00,
2013-07-06 02:58:00,69.0,68.1,30.08,SE,134,0.0,0.0,97,0.00,OVC,,0.01,WeatherDisplay:10.37,2013-07-06 06:58:00,
2013-07-06 03:03:00,69.0,68.1,30.08,SE,134,1.2,1.2,97,0.00,OVC,,0.01,WeatherDisplay:10.37,2013-07-06 07:03:00,
2013-07-06 03:08:00,69.1,68.2,30.08,SE,134,0.0,0.0,97,0.00,OVC,,0.01,WeatherDisplay:10.37,2013-07-06 07:08:00,
2013-07-06 03:13:00,69.1,68.2,30.08,SE,133,0.0,0.0,97,0.00,BKN,,0.01,WeatherDisplay:10.37,2013-07-06 07:13:00,
2013-07-06 03:18:00,69.1,68.2,30.09,SSE,153,1.2,0.0,97,0.00,BKN,,0.01,WeatherDisplay:10.37,2013-07-06 07:18:00,
2013-07-06 03:23:00,69.1,68.2,30.09,SSE,151,3.5,3.5,97,0.00,OVC,,0.01,WeatherDisplay:10.37,2013-07-06 07:23:00,
2013-07-06 03:28:00,69.1,68.2,30.09,SSE,151,0.0,0.0,97,0.00,OVC,,0.01,WeatherDisplay:10.37,2013-07-06 07:28:00,
2013-07-06 03:33:00,69.1,68.2,30.09,SSE,151,0.0,0.0,97,0.00,OVC,,0.01,WeatherDisplay:10.37,2013-07-06 07:33:00,
2013-07-06 03:38:00,69.1,68.2,30.09,SSE,151,0.0,0.0,97,0.00,OVC,,0.01,WeatherDisplay:10.37,2013-07-06 07:38:00,
2013-07-06 03:43:00,69.1,68.2,30.09,SSE,151,0.0,0.0,97,0.00,OVC,,0.01,WeatherDisplay:10.37,2013-07-06 07:43:00,
2013-07-06 03:48:00,69.2,68.3,30.09,SSE,151,0.0,0.0,97,0.00,OVC,,0.01,WeatherDisplay:10.37,2013-07-06 07:48:00,
2013-07-06 03:53:00,69.2,68.3,30.09,SSE,151,0.0,0.0,97,0.00,OVC,,0.01,WeatherDisplay:10.37,2013-07-06 07:53:00,
2013-07-06 03:58:00,69.3,68.4,30.09,SSE,151,0.0,0.0,97,0.00,OVC,,0.01,WeatherDisplay:10.37,2013-07-06 07:58:00,
2013-07-06 04:03:00,69.2,68.3,30.09,SSE,151,0.0,0.0,97,0.00,OVC,,0.01,WeatherDisplay:10.37,2013-07-06 08:03:00,
2013-07-06 04:08:00,69.3,68.4,30.09,SSE,151,0.0,0.0,97,0.00,OVC,,0.01,WeatherDisplay:10.37,2013-07-06 08:08:00,
2013-07-06 04:13:00,69.3,68.4,30.09,SSE,153,2.3,0.0,97,0.00,OVC,,0.01,WeatherDisplay:10.37,2013-07-06 08:13:00,
2013-07-06 04:18:00,69.3,68.4,30.09,SSE,153,0.0,0.0,97,0.00,OVC,,0.01,WeatherDisplay:10.37,2013-07-06 08:18:00,
2013-07-06 04:23:00,69.3,68.4,30.09,SSE,153,0.0,0.0,97,0.00,OVC,,0.01,WeatherDisplay:10.37,2013-07-06 08:23:00,
2013-07-06 04:28:00,69.3,68.4,30.09,SSE,153,0.0,0.0,97,0.00,OVC,,0.01,WeatherDisplay:10.37,2013-07-06 08:28:00,
2013-07-06 04:33:00,69.3,68.4,30.09,SSE,153,0.0,0.0,97,0.00,OVC,,0.01,WeatherDisplay:10.37,2013-07-06 08:33:00,
2013-07-06 04:38:00,69.3,68.4,30.09,SSE,153,0.0,0.0,97,0.00,OVC,,0.01,WeatherDisplay:10.37,2013-07-06 08:38:00,
2013-07-06 04:43:00,69.3,68.4,30.09,SSE,153,0.0,0.0,97,0.00,OVC,,0.01,WeatherDisplay:10.37,2013-07-06 08:43:00,
2013-07-06 04:48:00,69.3,68.4,30.09,SSE,153,0.0,0.0,97,0.00,OVC,,0.01,WeatherDisplay:10.37,2013-07-06 08:48:00,
2013-07-06 04:53:00,69.3,68.4,30.09,SSE,153,0.0,0.0,97,0.00,OVC,,0.01,WeatherDisplay:10.37,2013-07-06 08:53:00,
2013-07-06 04:58:00,69.3,68.4,30.09,SSE,153,0.0,0.0,97,0.00,OVC,,0.01,WeatherDisplay:10.37,2013-07-06 08:58:00,
2013-07-06 05:03:00,69.3,68.4,30.09,SSE,153,0.0,0.0,97,0.00,BKN,,0.01,WeatherDisplay:10.37,2013-07-06 09:03:00,
2013-07-06 05:08:00,69.4,68.5,30.09,SSE,150,2.3,2.3,97,0.00,BKN,,0.01,WeatherDisplay:10.37,2013-07-06 09:08:00,
2013-07-06 05:13:00,69.4,68.5,30.09,SSE,150,0.0,0.0,97,0.00,BKN,,0.01,WeatherDisplay:10.37,2013-07-06 09:13:00,
2013-07-06 05:18:00,69.4,68.5,30.09,SSE,150,0.0,0.0,97,0.00,BKN,,0.01,WeatherDisplay:10.37,2013-07-06 09:18:00,
2013-07-06 05:23:00,69.4,68.5,30.09,SSE,150,0.0,0.0,97,0.00,OVC,,0.01,WeatherDisplay:10.37,2013-07-06 09:23:00,
2013-07-06 05:28:00,69.4,68.5,30.09,SSE,150,0.0,0.0,97,0.00,OVC,,0.01,WeatherDisplay:10.37,2013-07-06 09:28:00,
2013-07-06 05:33:00,69.4,68.5,30.09,SSE,150,0.0,0.0,97,0.00,BKN,,0.01,WeatherDisplay:10.37,2013-07-06 09:33:00,
2013-07-06 05:38:00,69.4,68.5,30.09,SSE,150,0.0,0.0,97,0.00,BKN,,0.01,WeatherDisplay:10.37,2013-07-06 09:38:00,
2013-07-06 05:43:00,69.4,68.5,30.09,SSE,150,0.0,0.0,97,0.00,BKN,,0.01,WeatherDisplay:10.37,2013-07-06 09:43:00,
2013-07-06 05:48:00,69.4,68.5,30.09,SSE,150,0.0,0.0,97,0.00,BKN,,0.01,WeatherDisplay:10.37,2013-07-06 09:48:00,
2013-07-06 05:53:00,69.4,68.5,30.09,SSE,150,0.0,0.0,97,0.00,SCT,,0.01,WeatherDisplay:10.37,2013-07-06 09:53:00,
2013-07-06 05:58:00,69.4,68.5,30.09,SSE,150,0.0,0.1,97,0.00,SCT,,0.01,WeatherDisplay:10.37,2013-07-06 09:58:00,
2013-07-06 06:03:00,69.4,68.5,30.10,SSE,150,0.0,0.0,97,0.00,SCT,,0.01,WeatherDisplay:10.37,2013-07-06 10:03:00,
2013-07-06 06:08:00,69.5,68.6,30.10,SSE,150,0.0,0.0,97,0.00,SCT,,0.01,WeatherDisplay:10.37,2013-07-06 10:08:00,
2013-07-06 06:13:00,69.4,68.5,30.10,SSE,150,0.0,0.0,97,0.00,OVC,,0.01,WeatherDisplay:10.37,2013-07-06 10:13:00,
2013-07-06 06:18:00,69.5,68.6,30.10,SSE,150,0.0,0.0,97,0.00,OVC,,0.01,WeatherDisplay:10.37,2013-07-06 10:18:00,
2013-07-06 06:23:00,69.4,68.5,30.10,SSE,150,0.0,0.0,97,0.00,OVC,,0.01,WeatherDisplay:10.37,2013-07-06 10:23:00,
2013-07-06 06:28:00,69.4,68.5,30.10,SSE,150,0.0,0.0,97,0.00,OVC,,0.01,WeatherDisplay:10.37,2013-07-06 10:28:00,
2013-07-06 06:33:00,69.4,68.5,30.10,SSE,150,0.0,0.0,97,0.00,BKN,,0.01,WeatherDisplay:10.37,2013-07-06 10:33:00,
2013-07-06 06:38:00,69.4,68.5,30.10,SSE,150,0.0,0.0,97,0.00,BKN,,0.01,WeatherDisplay:10.37,2013-07-06 10:38:00,
2013-07-06 06:43:00,69.4,68.5,30.10,SSE,150,0.0,0.0,97,0.00,SCT,,0.01,WeatherDisplay:10.37,2013-07-06 10:43:00,
2013-07-06 06:48:00,69.4,68.6,30.10,SSE,150,0.0,0.0,97,0.00,SCT,,0.01,WeatherDisplay:10.37,2013-07-06 10:48:00,
2013-07-06 06:53:00,69.5,68.6,30.10,SSE,150,0.0,0.0,97,0.00,SCT,,0.01,WeatherDisplay:10.37,2013-07-06 10:53:00,
2013-07-06 06:58:00,69.5,68.6,30.10,SSE,150,0.0,0.0,97,0.00,SCT,,0.01,WeatherDisplay:10.37,2013-07-06 10:58:00,
2013-07-06 07:03:00,69.5,68.6,30.10,SSE,150,0.0,0.0,97,0.00,OVC,,0.01,WeatherDisplay:10.37,2013-07-06 11:03:00,
2013-07-06 07:08:00,69.6,68.7,30.10,SSE,150,0.0,0.0,97,0.00,OVC,,0.01,WeatherDisplay:10.37,2013-07-06 11:08:00,
2013-07-06 07:13:00,69.7,68.8,30.10,SSE,150,0.0,0.0,97,0.00,OVC,,0.01,WeatherDisplay:10.37,2013-07-06 11:13:00,
2013-07-06 07:18:00,69.7,68.8,30.10,SSE,150,0.0,0.0,97,0.00,OVC,,0.01,WeatherDisplay:10.37,2013-07-06 11:18:00,
2013-07-06 07:23:00,69.8,68.9,30.10,SSE,150,0.0,0.0,97,0.00,OVC,,0.01,WeatherDisplay:10.37,2013-07-06 11:23:00,
2013-07-06 07:28:00,69.9,69.3,30.10,SSE,150,0.0,0.0,98,0.00,OVC,,0.01,WeatherDisplay:10.37,2013-07-06 11:28:00,
2013-07-06 07:33:00,70.0,69.4,30.11,SSE,150,0.0,0.0,98,0.00,OVC,,0.01,WeatherDisplay:10.37,2013-07-06 11:33:00,
2013-07-06 07:38:00,70.0,69.4,30.11,SSE,150,0.0,1.0,98,0.00,OVC,,0.01,WeatherDisplay:10.37,2013-07-06 11:38:00,
2013-07-06 07:43:00,70.1,69.5,30.11,SSE,147,0.0,0.0,98,0.00,OVC,,0.01,WeatherDisplay:10.37,2013-07-06 11:43:00,
2013-07-06 07:48:00,70.1,69.5,30.10,SE,144,0.0,0.0,98,0.00,OVC,,0.01,WeatherDisplay:10.37,2013-07-06 11:48:00,
2013-07-06 07:53:00,70.2,69.6,30.11,SE,144,0.0,0.0,98,0.00,OVC,,0.01,WeatherDisplay:10.37,2013-07-06 11:53:00,
2013-07-06 07:58:00,70.2,69.3,30.11,SSE,150,0.0,0.0,97,0.00,OVC,,0.01,WeatherDisplay:10.37,2013-07-06 11:58:00,
2013-07-06 08:03:00,70.3,69.4,30.11,SSE,158,0.0,0.0,97,0.00,OVC,,0.01,WeatherDisplay:10.37,2013-07-06 12:03:00,
2013-07-06 08:08:00,70.3,69.4,30.11,ESE,117,0.0,0.0,97,0.00,OVC,,0.01,WeatherDisplay:10.37,2013-07-06 12:08:00,
2013-07-06 08:13:00,70.4,69.5,30.11,SSE,150,0.0,0.0,97,0.00,OVC,,0.01,WeatherDisplay:10.37,2013-07-06 12:13:00,
2013-07-06 08:18:00,70.5,69.6,30.11,SSE,150,0.0,0.0,97,0.00,OVC,,0.01,WeatherDisplay:10.37,2013-07-06 12:18:00,
2013-07-06 08:23:00,70.5,69.6,30.11,SSE,150,0.0,0.0,97,0.00,OVC,,0.01,WeatherDisplay:10.37,2013-07-06 12:23:00,
2013-07-06 08:28:00,70.6,70.0,30.11,SSE,150,0.0,0.0,98,0.00,OVC,,0.01,WeatherDisplay:10.37,2013-07-06 12:28:00,
2013-07-06 08:33:00,70.6,70.0,30.11,SSE,150,0.0,0.0,98,0.00,OVC,,0.01,WeatherDisplay:10.37,2013-07-06 12:33:00,
2013-07-06 08:38:00,70.6,70.0,30.11,SSE,150,0.0,0.0,98,0.00,OVC,,0.01,WeatherDisplay:10.37,2013-07-06 12:38:00,
2013-07-06 08:43:00,70.6,70.0,30.11,NE,39,0.0,0.0,98,0.00,OVC,,0.01,WeatherDisplay:10.37,2013-07-06 12:43:00,
2013-07-06 08:48:00,70.6,70.0,30.11,SE,132,1.2,1.2,98,0.00,OVC,,0.01,WeatherDisplay:10.37,2013-07-06 12:48:00,
2013-07-06 08:53:00,70.6,70.0,30.12,SE,132,0.0,0.0,98,0.00,OVC,,0.01,WeatherDisplay:10.37,2013-07-06 12:53:00,
2013-07-06 08:58:00,70.7,70.1,30.12,SE,132,0.0,0.0,98,0.00,OVC,,0.01,WeatherDisplay:10.37,2013-07-06 12:58:00,
2013-07-06 09:03:00,70.7,70.1,30.12,SE,132,0.0,0.0,98,0.00,OVC,,0.01,WeatherDisplay:10.37,2013-07-06 13:03:00,
2013-07-06 09:08:00,70.7,70.1,30.12,SE,132,1.2,1.2,98,0.00,OVC,,0.01,WeatherDisplay:10.37,2013-07-06 13:08:00,
2013-07-06 09:13:00,70.8,70.2,30.12,SE,132,0.0,0.0,98,0.00,OVC,,0.01,WeatherDisplay:10.37,2013-07-06 13:13:00,
2013-07-06 09:18:00,70.8,70.2,30.12,SE,132,0.0,0.0,98,0.00,OVC,,0.01,WeatherDisplay:10.37,2013-07-06 13:18:00,
2013-07-06 09:23:00,70.9,70.0,30.12,SE,132,0.0,0.0,97,0.00,OVC,,0.01,WeatherDisplay:10.37,2013-07-06 13:23:00,
2013-07-06 09:28:00,71.0,70.1,30.12,SE,143,1.0,0.0,97,0.00,OVC,,0.01,WeatherDisplay:10.37,2013-07-06 13:28:00,
2013-07-06 09:33:00,71.0,70.1,30.12,SSE,155,0.0,0.0,97,0.00,OVC,,0.01,WeatherDisplay:10.37,2013-07-06 13:33:00,
2013-07-06 09:38:00,71.2,70.3,30.12,SSE,147,1.2,1.2,97,0.00,OVC,,0.01,WeatherDisplay:10.37,2013-07-06 13:38:00,
2013-07-06 09:43:00,71.3,70.7,30.12,SE,140,1.2,1.2,98,0.00,OVC,,0.01,WeatherDisplay:10.37,2013-07-06 13:43:00,
2013-07-06 09:48:00,71.5,70.9,30.12,SE,135,0.0,0.0,98,0.00,OVC,,0.01,WeatherDisplay:10.37,2013-07-06 13:48:00,
2013-07-06 09:53:00,71.6,70.7,30.12,SE,134,2.3,2.3,97,0.00,OVC,,0.01,WeatherDisplay:10.37,2013-07-06 13:53:00,
2013-07-06 09:58:00,71.7,70.8,30.11,East,84,2.3,2.3,97,0.00,OVC,,0.01,WeatherDisplay:10.37,2013-07-06 13:58:00,
2013-07-06 10:03:00,71.8,70.9,30.12,SE,133,1.2,1.2,97,0.00,OVC,,0.01,WeatherDisplay:10.37,2013-07-06 14:03:00,
2013-07-06 10:08:00,71.8,71.2,30.11,ESE,121,1.0,0.0,98,0.00,OVC,,0.01,WeatherDisplay:10.37,2013-07-06 14:08:00,
2013-07-06 10:13:00,72.0,71.4,30.11,ESE,113,0.0,0.0,98,0.00,OVC,,0.01,WeatherDisplay:10.37,2013-07-06 14:13:00,
2013-07-06 10:18:00,72.0,71.4,30.11,SE,136,0.0,0.0,98,0.00,OVC,,0.01,WeatherDisplay:10.37,2013-07-06 14:18:00,
2013-07-06 10:23:00,72.1,71.5,30.12,SE,144,1.2,1.2,98,0.00,OVC,,0.01,WeatherDisplay:10.37,2013-07-06 14:23:00,
2013-07-06 10:28:00,72.1,71.5,30.12,SE,136,2.3,2.3,98,0.00,OVC,,0.01,WeatherDisplay:10.37,2013-07-06 14:28:00,
2013-07-06 10:33:00,72.2,71.3,30.12,SSE,148,2.3,2.3,97,0.00,OVC,,0.01,WeatherDisplay:10.37,2013-07-06 14:33:00,
2013-07-06 10:38:00,72.2,71.3,30.12,SE,141,1.2,0.0,97,0.00,OVC,,0.01,WeatherDisplay:10.37,2013-07-06 14:38:00,
2013-07-06 10:43:00,72.4,71.5,30.12,SE,136,1.2,1.2,97,0.00,OVC,,0.01,WeatherDisplay:10.37,2013-07-06 14:43:00,
2013-07-06 10:48:00,72.6,72.0,30.11,North,10,3.5,3.5,98,0.00,OVC,,0.01,WeatherDisplay:10.37,2013-07-06 14:48:00,
2013-07-06 10:53:00,72.8,72.2,30.11,SE,124,1.2,1.2,98,0.00,-RA,,0.01,WeatherDisplay:10.37,2013-07-06 14:53:00,
2013-07-06 10:58:00,72.9,72.0,30.11,ENE,66,0.0,0.2,97,0.00,-RA,,0.01,WeatherDisplay:10.37,2013-07-06 14:58:00,
2013-07-06 11:03:00,72.9,72.0,30.11,ENE,78,1.2,1.2,97,0.00,OVC,,0.01,WeatherDisplay:10.37,2013-07-06 15:03:00,
2013-07-06 11:08:00,72.9,72.0,30.11,SE,130,1.2,1.2,97,0.00,OVC,,0.01,WeatherDisplay:10.37,2013-07-06 15:08:00,
2013-07-06 11:13:00,72.9,72.0,30.11,East,92,3.5,3.5,97,0.00,OVC,,0.01,WeatherDisplay:10.37,2013-07-06 15:13:00,
2013-07-06 11:18:00,72.9,72.0,30.12,ESE,111,0.0,0.0,97,0.03,RA,,0.04,WeatherDisplay:10.37,2013-07-06 15:18:00,
2013-07-06 11:23:00,73.0,71.8,30.11,SSW,201,0.0,0.0,96,0.07,RA,,0.08,WeatherDisplay:10.37,2013-07-06 15:23:00,
2013-07-06 11:28:00,73.0,71.8,30.11,SSW,195,0.0,0.0,96,0.07,RA,,0.08,WeatherDisplay:10.37,2013-07-06 15:28:00,
2013-07-06 11:33:00,73.1,72.2,30.11,SSW,195,0.0,0.0,97,0.07,RA,,0.08,WeatherDisplay:10.37,2013-07-06 15:33:00,
2013-07-06 11:38:00,73.3,72.4,30.11,SSW,195,0.0,0.0,97,0.07,OVC,,0.08,WeatherDisplay:10.37,2013-07-06 15:38:00,
2013-07-06 11:43:00,73.5,72.6,30.11,SE,139,0.0,0.0,97,0.07,OVC,,0.08,WeatherDisplay:10.37,2013-07-06 15:43:00,
2013-07-06 11:48:00,73.8,72.9,30.11,SE,139,0.0,0.0,97,0.07,OVC,,0.08,WeatherDisplay:10.37,2013-07-06 15:48:00,
2013-07-06 11:53:00,73.9,73.0,30.11,SE,139,0.0,0.1,97,0.07,OVC,,0.08,WeatherDisplay:10.37,2013-07-06 15:53:00,
2013-07-06 11:58:00,74.0,73.1,30.11,SE,129,2.3,2.3,97,0.07,OVC,,0.08,WeatherDisplay:10.37,2013-07-06 15:58:00,
2013-07-06 12:03:00,73.8,72.9,30.11,SE,129,2.3,2.3,97,0.07,OVC,,0.08,WeatherDisplay:10.37,2013-07-06 16:03:00,
2013-07-06 12:08:00,73.9,72.7,30.10,SE,132,1.2,1.2,96,0.07,OVC,,0.08,WeatherDisplay:10.37,2013-07-06 16:08:00,
2013-07-06 12:14:00,74.0,72.8,30.10,SE,132,0.0,0.0,96,0.07,OVC,,0.08,WeatherDisplay:10.37,2013-07-06 16:14:00,
2013-07-06 12:19:00,74.2,73.0,30.10,SSE,148,3.5,3.5,96,0.04,OVC,,0.08,WeatherDisplay:10.37,2013-07-06 16:19:00,
2013-07-06 12:25:00,74.2,72.7,30.10,SE,146,0.0,3.0,95,0.00,-RA,,0.08,WeatherDisplay:10.37,2013-07-06 16:25:00,
2013-07-06 12:30:00,74.5,73.3,30.10,SE,146,0.0,0.0,96,0.00,-RA,,0.08,WeatherDisplay:10.37,2013-07-06 16:30:00,
2013-07-06 12:35:00,74.6,73.1,30.10,SSE,149,0.0,3.0,95,0.00,-DZ,,0.08,WeatherDisplay:10.37,2013-07-06 16:35:00,
2013-07-06 12:40:00,74.7,72.8,30.10,SE,135,0.0,1.0,94,0.00,-DZ,,0.08,WeatherDisplay:10.37,2013-07-06 16:40:00,
2013-07-06 12:45:00,74.9,73.1,30.09,SSE,163,2.3,2.3,94,0.00,-DZ,,0.08,WeatherDisplay:10.37,2013-07-06 16:45:00,
2013-07-06 12:50:00,75.0,72.8,30.09,ESE,123,1.2,1.2,93,0.00,-DZ,,0.08,WeatherDisplay:10.37,2013-07-06 16:50:00,
2013-07-06 12:56:00,75.1,72.9,30.09,West,260,2.3,2.3,93,0.00,-DZ,,0.08,WeatherDisplay:10.37,2013-07-06 16:56:00,
2013-07-06 13:02:00,75.3,72.8,30.09,WSW,238,1.0,0.0,92,0.00,OVC,,0.08,WeatherDisplay:10.37,2013-07-06 17:02:00,
2013-07-06 13:07:00,75.4,72.6,30.09,SE,132,2.0,2.0,91,0.00,OVC,,0.08,WeatherDisplay:10.37,2013-07-06 17:07:00,
2013-07-06 13:12:00,75.6,73.1,30.09,South,169,0.0,0.0,92,0.00,OVC,,0.08,WeatherDisplay:10.37,2013-07-06 17:12:00,
2013-07-06 13:17:00,75.7,73.2,30.09,SE,134,1.2,0.0,92,0.00,OVC,,0.08,WeatherDisplay:10.37,2013-07-06 17:17:00,
2013-07-06 13:22:00,75.8,73.0,30.09,SE,126,1.2,1.2,91,0.00,OVC,,0.08,WeatherDisplay:10.37,2013-07-06 17:22:00,
2013-07-06 13:28:00,76.0,73.5,30.08,SE,138,0.0,0.0,92,0.00,OVC,,0.08,WeatherDisplay:10.37,2013-07-06 17:28:00,
2013-07-06 13:33:00,76.1,73.9,30.08,SE,137,0.0,0.0,93,0.00,-RA,,0.08,WeatherDisplay:10.37,2013-07-06 17:33:00,
2013-07-06 13:38:00,76.1,73.6,30.08,SE,146,0.0,0.0,92,0.00,-RA,,0.08,WeatherDisplay:10.37,2013-07-06 17:38:00,
2013-07-06 13:43:00,76.0,73.2,30.08,SE,146,0.0,0.0,91,0.00,-RA,,0.08,WeatherDisplay:10.37,2013-07-06 17:43:00,
2013-07-06 13:49:00,76.0,73.2,30.07,SE,146,0.0,0.0,91,0.00,-RA,,0.08,WeatherDisplay:10.37,2013-07-06 17:49:00,
2013-07-06 13:54:00,76.1,73.6,30.07,SW,225,1.2,1.2,92,0.00,-RA,,0.08,WeatherDisplay:10.37,2013-07-06 17:54:00,
2013-07-06 13:59:00,76.3,74.1,30.07,SW,225,1.2,1.2,93,0.00,-RA,,0.08,WeatherDisplay:10.37,2013-07-06 17:59:00,
2013-07-06 14:04:00,76.2,73.1,30.07,ENE,76,1.2,1.2,90,0.00,-RA,,0.08,WeatherDisplay:10.37,2013-07-06 18:04:00,
2013-07-06 14:09:00,76.2,73.1,30.07,SE,134,3.5,3.5,90,0.00,-RA,,0.08,WeatherDisplay:10.37,2013-07-06 18:09:00,
2013-07-06 14:15:00,76.1,73.0,30.07,South,175,0.0,0.0,90,0.01,-DZ,,0.09,WeatherDisplay:10.37,2013-07-06 18:15:00,
2013-07-06 14:20:00,76.0,73.2,30.07,SW,215,0.0,0.0,91,0.01,-DZ,,0.09,WeatherDisplay:10.37,2013-07-06 18:20:00,
2013-07-06 14:25:00,75.7,72.9,30.07,ESE,111,0.0,0.0,91,0.01,-RA,,0.09,WeatherDisplay:10.37,2013-07-06 18:25:00,
2013-07-06 14:30:00,75.5,73.0,30.07,ESE,111,0.0,0.0,92,0.01,-RA,,0.09,WeatherDisplay:10.37,2013-07-06 18:30:00,
2013-07-06 14:35:00,75.3,72.8,30.07,ESE,111,0.0,0.0,92,0.02,-RA,,0.10,WeatherDisplay:10.37,2013-07-06 18:35:00,
2013-07-06 14:40:00,75.2,73.0,30.06,ESE,111,0.0,0.0,93,0.00,-RA,,0.10,WeatherDisplay:10.37,2013-07-06 18:40:00,
2013-07-06 14:45:00,75.1,72.9,30.06,ESE,111,0.0,0.0,93,0.02,-RA,,0.10,WeatherDisplay:10.37,2013-07-06 18:45:00,
2013-07-06 14:50:00,75.3,73.8,30.06,ESE,111,0.0,0.0,95,0.02,-RA,,0.10,WeatherDisplay:10.37,2013-07-06 18:50:00,
2013-07-06 14:56:00,75.5,74.0,30.06,SW,232,3.5,3.5,95,0.02,OVC,,0.10,WeatherDisplay:10.37,2013-07-06 18:56:00,
2013-07-06 15:01:00,75.4,73.2,30.06,WSW,242,2.3,2.3,93,0.04,RA,,0.16,WeatherDisplay:10.37,2013-07-06 19:01:00,
2013-07-06 15:06:00,75.3,73.1,30.05,WNW,292,1.2,1.2,93,0.11,RA,,0.19,WeatherDisplay:10.37,2013-07-06 19:06:00,
2013-07-06 15:12:00,75.3,73.5,30.06,WNW,292,0.0,0.0,94,0.10,RA,,0.19,WeatherDisplay:10.37,2013-07-06 19:12:00,
2013-07-06 15:17:00,75.5,74.0,30.05,West,267,1.2,1.2,95,0.10,RA,,0.19,WeatherDisplay:10.37,2013-07-06 19:17:00,
2013-07-06 15:22:00,75.8,74.6,30.06,SW,226,0.0,0.0,96,0.10,-RA,,0.19,WeatherDisplay:10.37,2013-07-06 19:22:00,
2013-07-06 15:27:00,76.0,74.5,30.05,SW,226,0.0,0.0,95,0.10,-RA,,0.19,WeatherDisplay:10.37,2013-07-06 19:27:00,
2013-07-06 15:33:00,76.4,74.9,30.05,WNW,290,2.3,2.3,95,0.09,OVC,,0.19,WeatherDisplay:10.37,2013-07-06 19:33:00,
2013-07-06 15:38:00,76.9,75.4,30.05,WSW,246,1.2,0.0,95,0.09,OVC,,0.19,WeatherDisplay:10.37,2013-07-06 19:38:00,
2013-07-06 15:43:00,77.3,75.8,30.04,NNE,26,1.2,1.2,95,0.09,OVC,,0.19,WeatherDisplay:10.37,2013-07-06 19:43:00,
2013-07-06 15:49:00,77.2,75.3,30.04,NNE,27,0.0,0.0,94,0.09,OVC,,0.19,WeatherDisplay:10.37,2013-07-06 19:49:00,
2013-07-06 15:54:00,77.3,75.4,30.03,NNE,26,0.0,0.0,94,0.09,OVC,,0.19,WeatherDisplay:10.37,2013-07-06 19:54:00,
2013-07-06 15:59:00,77.3,75.4,30.03,NNE,12,0.0,0.0,94,0.09,OVC,,0.19,WeatherDisplay:10.37,2013-07-06 19:59:00,
2013-07-06 16:04:00,77.3,75.4,30.04,NNE,12,0.0,0.0,94,0.01,OVC,,0.19,WeatherDisplay:10.37,2013-07-06 20:04:00,
2013-07-06 16:09:00,77.4,75.5,30.04,NNE,12,1.0,0.0,94,0.00,OVC,,0.19,WeatherDisplay:10.37,2013-07-06 20:09:00,
2013-07-06 16:15:00,77.5,75.6,30.04,NW,313,0.0,0.0,94,0.00,OVC,,0.19,WeatherDisplay:10.37,2013-07-06 20:15:00,
2013-07-06 16:20:00,77.5,75.6,30.04,NW,313,0.0,0.0,94,0.00,OVC,,0.19,WeatherDisplay:10.37,2013-07-06 20:20:00,
2013-07-06 16:25:00,77.4,75.5,30.04,NW,313,0.0,0.0,94,0.00,OVC,,0.19,WeatherDisplay:10.37,2013-07-06 20:25:00,
2013-07-06 16:30:00,77.2,74.4,30.04,SSE,154,0.0,0.0,91,0.00,OVC,,0.19,WeatherDisplay:10.37,2013-07-06 20:30:00,
2013-07-06 16:35:00,77.0,73.9,30.05,South,170,0.0,0.0,90,0.00,OVC,,0.19,WeatherDisplay:10.37,2013-07-06 20:35:00,
2013-07-06 16:41:00,77.0,73.8,30.05,South,178,0.0,0.0,90,0.00,OVC,,0.19,WeatherDisplay:10.37,2013-07-06 20:41:00,
2013-07-06 16:46:00,77.0,74.2,30.05,South,178,0.0,0.0,91,0.00,OVC,,0.19,WeatherDisplay:10.37,2013-07-06 20:46:00,
2013-07-06 16:51:00,77.0,74.2,30.05,South,178,0.0,0.0,91,0.00,OVC,,0.19,WeatherDisplay:10.37,2013-07-06 20:51:00,
2013-07-06 16:56:00,77.0,74.5,30.04,South,177,0.0,0.0,92,0.00,OVC,,0.19,WeatherDisplay:10.37,2013-07-06 20:56:00,
2013-07-06 17:01:00,77.1,74.9,30.04,South,177,0.0,0.0,93,0.00,OVC,,0.19,WeatherDisplay:10.37,2013-07-06 21:01:00,
2013-07-06 17:07:00,77.0,74.5,30.03,South,177,0.0,0.0,92,0.00,OVC,,0.19,WeatherDisplay:10.37,2013-07-06 21:07:00,
2013-07-06 17:12:00,77.0,74.5,30.04,South,177,0.0,0.0,92,0.00,OVC,,0.19,WeatherDisplay:10.37,2013-07-06 21:12:00,
2013-07-06 17:17:00,76.9,74.1,30.03,South,177,0.0,0.0,91,0.00,OVC,,0.19,WeatherDisplay:10.37,2013-07-06 21:17:00,
2013-07-06 17:22:00,76.9,74.4,30.03,South,177,0.0,0.0,92,0.00,OVC,,0.19,WeatherDisplay:10.37,2013-07-06 21:22:00,
2013-07-06 17:28:00,76.9,73.7,30.04,South,177,1.2,1.2,90,0.00,OVC,,0.19,WeatherDisplay:10.37,2013-07-06 21:28:00,
2013-07-06 17:33:00,76.9,74.1,30.04,South,177,0.0,0.0,91,0.00,OVC,,0.19,WeatherDisplay:10.37,2013-07-06 21:33:00,
2013-07-06 17:38:00,76.9,74.1,30.04,South,178,0.0,0.0,91,0.00,OVC,,0.19,WeatherDisplay:10.37,2013-07-06 21:38:00,
2013-07-06 17:43:00,77.0,74.5,30.05,South,178,0.0,0.0,92,0.00,OVC,,0.19,WeatherDisplay:10.37,2013-07-06 21:43:00,
2013-07-06 17:48:00,77.0,74.5,30.05,South,178,0.0,0.0,92,0.00,OVC,,0.19,WeatherDisplay:10.37,2013-07-06 21:48:00,
2013-07-06 17:53:00,77.0,74.5,30.05,South,178,0.0,0.0,92,0.00,OVC,,0.19,WeatherDisplay:10.37,2013-07-06 21:53:00,
2013-07-06 17:58:00,77.0,74.5,30.05,South,178,0.0,0.0,92,0.00,OVC,,0.19,WeatherDisplay:10.37,2013-07-06 21:58:00,
2013-07-06 18:04:00,77.0,74.8,30.05,South,178,0.0,0.0,93,0.00,OVC,,0.19,WeatherDisplay:10.37,2013-07-06 22:04:00,
2013-07-06 18:09:00,77.0,74.8,30.05,South,178,0.0,0.0,93,0.00,OVC,,0.19,WeatherDisplay:10.37,2013-07-06 22:09:00,
2013-07-06 18:14:00,76.9,74.7,30.05,South,178,0.0,0.0,93,0.00,OVC,,0.19,WeatherDisplay:10.37,2013-07-06 22:14:00,
2013-07-06 18:19:00,76.8,74.6,30.05,South,178,0.0,0.0,93,0.00,OVC,,0.19,WeatherDisplay:10.37,2013-07-06 22:19:00,
2013-07-06 18:24:00,76.7,74.5,30.04,South,178,0.0,0.0,93,0.00,-RA,,0.19,WeatherDisplay:10.37,2013-07-06 22:24:00,
2013-07-06 18:29:00,76.6,74.4,30.04,South,178,0.0,0.0,93,0.00,-RA,,0.20,WeatherDisplay:10.37,2013-07-06 22:29:00,
2013-07-06 18:34:00,76.4,74.3,30.04,South,178,0.0,0.0,93,0.00,RA,,0.20,WeatherDisplay:10.37,2013-07-06 22:34:00,
2013-07-06 18:39:00,76.2,74.0,30.04,South,178,0.0,0.0,93,0.01,RA,,0.20,WeatherDisplay:10.37,2013-07-06 22:39:00,
2013-07-06 18:44:00,76.1,74.2,30.04,South,178,0.0,0.0,94,0.00,OVC,,0.20,WeatherDisplay:10.37,2013-07-06 22:44:00,
2013-07-06 18:49:00,76.1,74.2,30.04,South,178,0.0,0.0,94,0.00,OVC,,0.20,WeatherDisplay:10.37,2013-07-06 22:49:00,
2013-07-06 18:54:00,76.0,74.1,30.04,South,178,0.0,0.0,94,0.00,-RA,,0.20,WeatherDisplay:10.37,2013-07-06 22:54:00,
2013-07-06 18:59:00,75.9,74.1,30.04,South,178,0.0,0.0,94,0.00,-RA,,0.20,WeatherDisplay:10.37,2013-07-06 22:59:00,
2013-07-06 19:04:00,75.9,74.0,30.04,SSW,212,1.2,0.0,94,0.01,-RA,,0.20,WeatherDisplay:10.37,2013-07-06 23:04:00,
2013-07-06 19:09:00,75.7,73.8,30.04,South,189,1.2,0.0,94,0.01,-RA,,0.20,WeatherDisplay:10.37,2013-07-06 23:09:00,
2013-07-06 19:14:00,75.5,73.7,30.04,SE,131,0.0,0.0,94,0.00,-DZ,,0.20,WeatherDisplay:10.37,2013-07-06 23:14:00,
2013-07-06 19:20:00,75.2,73.4,30.04,NNE,15,0.0,0.0,94,0.01,-DZ,,0.20,WeatherDisplay:10.37,2013-07-06 23:20:00,
2013-07-06 19:25:00,75.0,73.2,30.04,NNW,332,1.2,0.0,94,0.01,-DZ,,0.20,WeatherDisplay:10.37,2013-07-06 23:25:00,
2013-07-06 19:30:00,74.8,73.0,30.04,NNW,331,0.0,0.0,94,0.00,-DZ,,0.20,WeatherDisplay:10.37,2013-07-06 23:30:00,
2013-07-06 19:35:00,74.6,72.8,30.04,WSW,243,0.0,0.0,94,0.00,-DZ,,0.20,WeatherDisplay:10.37,2013-07-06 23:35:00,
2013-07-06 19:41:00,74.4,72.6,30.04,West,279,0.0,0.0,94,0.00,-DZ,,0.20,WeatherDisplay:10.37,2013-07-06 23:41:00,
2013-07-06 19:46:00,74.3,72.8,30.03,West,275,0.0,0.0,95,0.01,-DZ,,0.21,WeatherDisplay:10.37,2013-07-06 23:46:00,
2013-07-06 19:51:00,74.2,72.7,30.04,West,279,1.2,0.0,95,0.02,-DZ,,0.22,WeatherDisplay:10.37,2013-07-06 23:51:00,
2013-07-06 19:56:00,74.0,72.5,30.06,West,281,0.0,0.0,95,0.02, +RA,,0.22,WeatherDisplay:10.37,2013-07-06 23:56:00,
2013-07-06 20:01:00,73.9,72.4,30.07,West,280,0.0,0.0,95,0.05,-RA,,0.36,WeatherDisplay:10.37,2013-07-07 00:01:00,
2013-07-06 20:06:00,73.7,72.2,30.07,SW,227,1.2,0.0,95,0.32,-RA,,0.53,WeatherDisplay:10.37,2013-07-07 00:06:00,
2013-07-06 20:11:00,73.6,72.1,30.07,WNW,290,1.2,0.0,95,0.36,-RA,,0.56,WeatherDisplay:10.37,2013-07-07 00:11:00,
2013-07-06 20:16:00,73.3,71.8,30.06,WSW,244,1.2,1.2,95,0.36,-RA,,0.56,WeatherDisplay:10.37,2013-07-07 00:16:00,
2013-07-06 20:21:00,73.0,71.2,30.06,WSW,258,0.0,0.0,94,0.00,RA,,0.56,WeatherDisplay:10.37,2013-07-07 00:21:00,
2013-07-06 20:26:00,72.9,71.0,30.06,SW,233,1.0,2.0,94,0.00,OVC,,0.56,WeatherDisplay:10.37,2013-07-07 00:26:00,
2013-07-06 20:32:00,72.7,71.2,30.06,SSW,209,0.0,0.0,95,0.36,OVC,,0.56,WeatherDisplay:10.37,2013-07-07 00:32:00,
2013-07-06 20:37:00,72.6,71.1,30.06,SSW,207,0.0,0.0,95,0.00,OVC,,0.56,WeatherDisplay:10.37,2013-07-07 00:37:00,
2013-07-06 20:42:00,72.5,71.0,30.06,SSW,193,0.0,0.0,95,0.00,OVC,,0.56,WeatherDisplay:10.37,2013-07-07 00:42:00,
2013-07-06 20:47:00,72.4,70.9,30.06,South,190,0.0,1.0,95,0.00,OVC,,0.56,WeatherDisplay:10.37,2013-07-07 00:47:00,
2013-07-06 20:52:00,72.3,70.8,30.05,WNW,292,1.2,0.0,95,0.34,OVC,,0.56,WeatherDisplay:10.37,2013-07-07 00:52:00,
2013-07-06 20:58:00,72.2,70.7,30.05,WNW,292,0.0,0.0,95,0.00,OVC,,0.56,WeatherDisplay:10.37,2013-07-07 00:58:00,
2013-07-06 21:03:00,72.2,71.0,30.05,WNW,292,0.0,0.0,96,0.14,OVC,,0.56,WeatherDisplay:10.37,2013-07-07 01:03:00,
2013-07-06 21:08:00,72.1,70.9,30.05,WNW,292,0.0,0.0,96,0.02,OVC,,0.56,WeatherDisplay:10.37,2013-07-07 01:08:00,
2013-07-06 21:13:00,72.0,70.8,30.05,WNW,292,0.0,0.0,96,0.00,OVC,,0.56,WeatherDisplay:10.37,2013-07-07 01:13:00,
2013-07-06 21:18:00,71.9,70.7,30.06,WNW,292,0.0,0.0,96,0.00,OVC,,0.56,WeatherDisplay:10.37,2013-07-07 01:18:00,
2013-07-06 21:23:00,71.9,70.7,30.06,WNW,292,0.0,0.0,96,0.00,OVC,,0.56,WeatherDisplay:10.37,2013-07-07 01:23:00,
2013-07-06 21:29:00,71.8,70.6,30.06,WNW,292,0.0,0.0,96,0.00,OVC,,0.56,WeatherDisplay:10.37,2013-07-07 01:29:00,
2013-07-06 21:34:00,71.7,70.5,30.06,WNW,292,0.0,0.0,96,0.00,OVC,,0.56,WeatherDisplay:10.37,2013-07-07 01:34:00,
2013-07-06 21:39:00,71.7,70.5,30.06,WNW,292,0.0,0.0,96,0.00,OVC,,0.56,WeatherDisplay:10.37,2013-07-07 01:39:00,
2013-07-06 21:44:00,71.6,70.4,30.06,WNW,292,0.0,0.0,96,0.00,OVC,,0.56,WeatherDisplay:10.37,2013-07-07 01:44:00,
2013-07-06 21:49:00,71.6,70.4,30.06,WNW,292,0.0,0.0,96,0.00,OVC,,0.56,WeatherDisplay:10.37,2013-07-07 01:49:00,
2013-07-06 21:55:00,71.5,70.3,30.06,WNW,292,0.0,0.0,96,0.00,OVC,,0.56,WeatherDisplay:10.37,2013-07-07 01:55:00,
2013-07-06 22:00:00,71.5,70.3,30.07,WNW,292,0.0,0.0,96,0.00,OVC,,0.56,WeatherDisplay:10.37,2013-07-07 02:00:00,
2013-07-06 22:05:00,71.5,70.3,30.07,WNW,292,0.0,0.0,96,0.00,OVC,,0.56,WeatherDisplay:10.37,2013-07-07 02:05:00,
2013-07-06 22:10:00,71.4,70.2,30.07,WNW,292,0.0,0.0,96,0.00,OVC,,0.56,WeatherDisplay:10.37,2013-07-07 02:10:00,
2013-07-06 22:15:00,71.4,70.2,30.07,WNW,292,0.0,0.0,96,0.00,BKN,,0.56,WeatherDisplay:10.37,2013-07-07 02:15:00,
2013-07-06 22:20:00,71.3,70.1,30.08,WNW,292,0.0,0.0,96,0.00,BKN,,0.56,WeatherDisplay:10.37,2013-07-07 02:20:00,
2013-07-06 22:25:00,71.3,70.1,30.08,WNW,292,0.0,0.0,96,0.00,BKN,,0.56,WeatherDisplay:10.37,2013-07-07 02:25:00,
2013-07-06 22:30:00,71.3,70.1,30.08,WNW,292,0.0,0.0,96,0.00,BKN,,0.56,WeatherDisplay:10.37,2013-07-07 02:30:00,
2013-07-06 22:36:00,71.2,70.0,30.08,WNW,292,0.0,0.0,96,0.00,BKN,,0.56,WeatherDisplay:10.37,2013-07-07 02:36:00,
2013-07-06 22:41:00,71.3,70.1,30.08,WNW,292,0.0,0.0,96,0.00,BKN,,0.56,WeatherDisplay:10.37,2013-07-07 02:41:00,
2013-07-06 22:46:00,71.3,70.1,30.08,WNW,292,0.0,0.0,96,0.00,BKN,,0.56,WeatherDisplay:10.37,2013-07-07 02:46:00,
2013-07-06 22:51:00,71.2,70.0,30.08,WNW,292,0.0,0.0,96,0.00,BKN,,0.56,WeatherDisplay:10.37,2013-07-07 02:51:00,
2013-07-06 22:56:00,71.2,70.3,30.08,WNW,292,0.0,0.0,97,0.00,BKN,,0.56,WeatherDisplay:10.37,2013-07-07 02:56:00,
2013-07-06 23:01:00,71.2,70.3,30.08,WNW,292,0.0,0.0,97,0.00,BKN,,0.56,WeatherDisplay:10.37,2013-07-07 03:01:00,
2013-07-06 23:06:00,71.2,70.3,30.08,WNW,292,0.0,0.0,97,0.00,BKN,,0.56,WeatherDisplay:10.37,2013-07-07 03:06:00,
2013-07-06 23:11:00,71.2,70.3,30.08,WNW,292,0.0,0.0,97,0.00,BKN,,0.56,WeatherDisplay:10.37,2013-07-07 03:11:00,
2013-07-06 23:16:00,71.2,70.3,30.08,WNW,292,0.0,0.0,97,0.00,BKN,,0.56,WeatherDisplay:10.37,2013-07-07 03:16:00,
2013-07-06 23:21:00,71.1,70.2,30.08,WNW,292,0.0,0.0,97,0.00,BKN,,0.56,WeatherDisplay:10.37,2013-07-07 03:21:00,
2013-07-06 23:26:00,71.1,70.2,30.08,WNW,292,0.0,0.0,97,0.00,BKN,,0.56,WeatherDisplay:10.37,2013-07-07 03:26:00,
2013-07-06 23:31:00,71.1,70.2,30.08,WNW,292,0.0,0.0,97,0.00,BKN,,0.56,WeatherDisplay:10.37,2013-07-07 03:31:00,
2013-07-06 23:36:00,71.1,69.9,30.08,WNW,292,0.0,0.0,96,0.00,BKN,,0.56,WeatherDisplay:10.37,2013-07-07 03:36:00,
2013-07-06 23:41:00,71.0,69.8,30.09,WNW,292,0.0,0.0,96,0.00,BKN,,0.56,WeatherDisplay:10.37,2013-07-07 03:41:00,
2013-07-06 23:47:00,71.0,69.8,30.09,WNW,292,0.0,0.0,96,0.00,BKN,,0.56,WeatherDisplay:10.37,2013-07-07 03:47:00,
2013-07-06 23:52:00,71.0,69.8,30.09,WNW,292,0.0,0.0,96,0.00,BKN,,0.56,WeatherDisplay:10.37,2013-07-07 03:52:00,
2013-07-06 23:57:00,71.0,70.1,30.09,WNW,292,0.0,0.0,97,0.00,BKN,,0.56,WeatherDisplay:10.37,2013-07-07 03:57:00,